NOAA 16 DEB, 41226

Orbit data source: Space-Track

NOAA 16 DEB, 41226 is space debris in SSO originally from a launch on Thu, 21 Sep 2000 UTC launched from the Air Force Western Test Range (AFWTR). Debris objects in space refer to the collection of defunct objects orbiting the Earth. Examples of debris include non-operational satellites, rocket bodies, and fragments generated from explosions, collisions, or faulty payload assembly.

Loading next visibility...
Identifier
41226, 2000-055EF
Orbit
SSO
Country
Flag of USUS
Related business
Manufacturer
Unknown
Mission
Spacecraft
Bus & Motor
Unknown
Mass
Unknown
Launch date (UTC)
Icon of a cake. It is the launch day of the satellite!2000-09-21 (26 years ago)
Launch vehicle
Unknown
Launch site
Air Force Western Test Range (AFWTR)
Object type
Payload
Rocket body
Debris
Shape & HBR
Unknown shape, 0.1 m
Radar Cross Section
Medium (>0.1 m² and <1 m²)

Expand to show TLE details & history
Last TLE update: 19 hours ago

TLE from 19 hours ago
0 NOAA 16 DEB
1 41226U 00055EF  26263.92985363  .00001334  00000-0  65962-3 0  9991
2 41226  98.6975 303.9206 0027051 339.8021  20.2082 14.18846003554424
Epoch: 2026-09-20T22:18Z
TLE epoch observation values (Epoch: 2026-09-20T22:18:59.353Z)
Latitude
-0.00008°
Longitude
-30.64367°
Altitude
813.878 km
Speed
7.456 km/s
True Right ascension
20h 15m 40s
True Declination
0° 00' 00"
Sunlit
Object was in full shadow at epoch
Visualization orbit readout
Latitude
Unknown
Longitude
Unknown
Altitude
Unknown
Speed
Unknown
Apparent Right ascension
Unknown
Apparent Declination
Unknown
Sunlit
N/A
Visualization observer readout
Local Sidereal Time
09:56:43
Azimuth
Unknown
Elevation
Unknown
Doppler factor
Unknown
Orbital elements
Apogee altitude
845.907 km
Perigee altitude
806.929 km
Semi-major axis
7,204.555 km
Eccentricity
0.00271
Inclination
98.6975°
RAAN
303.9206°
Arg. of periapsis
339.8021°
True anomaly
20.31562°
Mean anomaly
20.2082°
Eccentric anomaly
20.26188°
Mean motion
3.54922 °/min
Orbital period
101.43 mins
BSTAR
0.00065962
Loading maneuver chart data...
Computing Atmospheric mass density...

Documentation

Showing up to 5 results
|